Flag for Canada Weather past 2 weeks in Miramichi, New Brunswick, Canada

Now
54 °F

Clear.


Feels Like: 52 °F
Forecast: 52 / 79 °F
Wind: 6 mph from West

Location: Bathurst Airport

Current Time: Jul 25, 2014 at 1:44:18 AM

Latest Report: Jul 25, 2014 at 1:00 AM


Visibility: 15 mi

Pressure: 29.81 "Hg

Humidity: 94%

Dew point: 52 °F

Location of MiramichiLocation

Historic Weather in Miramichi — Graph

°F

Miramichi temperature yesterday

Maximum temperature yesterday: 70 °F (at 3:00 PM)
Minimum temperature yesterday: 55 °F (at 11:00 PM)
Average temperature yesterday: 64 °F

Past Weeks' High & Low Weather Summary

 TemperatureHumidityPressure
High90 °F (Jul 23, 2:00 PM)100% (Jul 11, 6:00 AM)30.25 "Hg (Jul 11, 6:00 AM)
Low48 °F (Jul 11, 6:00 AM)35% (Jul 12, 3:00 PM)29.58 "Hg (Jul 23, 4:00 PM)
Average70 °F70%29.93 "Hg
* Reported Midnight between Jul 9 and Jul 10 — Midnight between Jul 24 and Jul 25, Miramichi, Weather by CustomWeather, © 2014

Note: Actual official high and low records may vary slightly from our data, if they occured in-between our weather recording intervals... More about our weather records

Advertising

Miramichi weather history for previous 24 hours

 ConditionsComfort  
Time TempWeatherWind HumidityBarometerVisibility
12:00 AM
Jul 25
55 °FClear.3 mph94%29.81 "Hg15 mi
11:00 PM
Jul 24
55 °FPassing clouds.2 mph94%29.80 "Hg15 mi
10:00 PM59 °FBroken clouds.2 mph88%29.79 "Hg15 mi
9:00 PM64 °FPartly sunny.No wind73%29.78 "Hg15 mi
8:00 PM66 °FBroken clouds.3 mph60%29.78 "Hg15 mi
7:00 PM70 °FScattered clouds.5 mph53%29.77 "Hg15 mi
6:00 PM70 °FScattered clouds.8 mph53%29.77 "Hg15 mi
5:00 PM70 °FPartly sunny.7 mph57%29.78 "Hg15 mi
4:00 PM70 °FBroken clouds.8 mph57%29.78 "Hg15 mi
3:00 PM70 °FBroken clouds.7 mph57%29.79 "Hg15 mi
2:00 PM68 °FPartly sunny.10 mph60%29.79 "Hg15 mi
1:00 PM68 °FMore clouds than sun.2 mph64%29.80 "Hg15 mi
12:00 PM66 °FPartly sunny.7 mph60%29.81 "Hg15 mi
11:00 AM64 °FPartly sunny.7 mph68%29.83 "Hg15 mi
10:00 AM63 °FMore clouds than sun.7 mph73%29.82 "Hg15 mi
9:00 AM61 °FOvercast.6 mph77%29.82 "Hg15 mi
8:00 AM59 °FMostly cloudy.7 mph77%29.80 "Hg15 mi
7:00 AM57 °FPartly sunny.7 mph88%29.78 "Hg15 mi
6:00 AM59 °FPartly cloudy.6 mph82%29.77 "Hg15 mi
5:00 AM59 °FPartly cloudy.8 mph88%29.75 "Hg15 mi
4:00 AM61 °FPassing clouds.7 mph88%29.74 "Hg15 mi
3:00 AM63 °FPassing clouds.7 mph83%29.73 "Hg15 mi
2:00 AM63 °FPassing clouds.5 mph88%29.71 "Hg15 mi
1:00 AM66 °FPassing clouds.5 mph83%29.70 "Hg15 mi
Weather by CustomWeather, © 2014

See weather overviewHow to use our weather pages